| time (UTC) | temp F | wind direction | speed knots | gust knots | rain 1hr in | rain 24hr in | rain mn in | humidity % | barometer mb |
| 20260901124003 | 68 | 280 | 0.0 | 0.0 | 0.00 | 0.04 | 0.00 | 91 | 1022.5 |
| 20260901123003 | 68 | 280 | 0.0 | 0.0 | 0.00 | 0.04 | 0.00 | 91 | 1022.5 |
| 20260901122003 | 67 | 280 | 0.0 | 0.0 | 0.00 | 0.04 | 0.00 | 91 | 1022.4 |
| 20260901121003 | 67 | 280 | 0.0 | 0.0 | 0.00 | 0.04 | 0.00 | 91 | 1022.4 |
| 20260901120003 | 67 | 280 | 0.0 | 0.0 | 0.00 | 0.04 | 0.00 | 91 | 1022.3 |
| 20260901115003 | 67 | 280 | 0.0 | 0.0 | 0.00 | 0.04 | 0.00 | 90 | 1022.1 |
| 20260901114003 | 67 | 280 | 0.0 | 0.0 | 0.00 | 0.04 | 0.00 | 90 | 1022.0 |
| 20260901113003 | 67 | 280 | 0.0 | 0.0 | 0.00 | 0.04 | 0.00 | 90 | 1021.9 |
| 20260901112003 | 66 | 280 | 0.0 | 0.0 | 0.00 | 0.04 | 0.00 | 90 | 1021.7 |
| 20260901111004 | 67 | 280 | 0.0 | 0.0 | 0.00 | 0.04 | 0.00 | 90 | 1021.6 |
| 20260901110004 | 67 | 280 | 0.0 | 0.0 | 0.00 | 0.04 | 0.00 | 90 | 1021.6 |
| 20260901105003 | 67 | 280 | 0.0 | 0.0 | 0.00 | 0.04 | 0.00 | 90 | 1021.5 |
| 20260901104003 | 67 | 280 | 0.0 | 0.0 | 0.00 | 0.04 | 0.00 | 90 | 1021.4 |
| 20260901072004 | 68 | 280 | 0.0 | 0.0 | 0.00 | 0.04 | 0.00 | 91 | 1021.1 |
| 20260901071003 | 68 | 280 | 0.0 | 0.0 | 0.00 | 0.04 | 0.00 | 91 | 1021.2 |
| 20260901070003 | 68 | 280 | 0.0 | 0.0 | 0.00 | 0.04 | 0.00 | 91 | 1021.3 |
| 20260901065003 | 68 | 280 | 0.0 | 0.0 | 0.00 | 0.04 | 0.00 | 91 | 1021.3 |
| 20260901064003 | 68 | 280 | 0.0 | 0.0 | 0.00 | 0.04 | 0.00 | 91 | 1021.3 |
| 20260901063003 | 68 | 280 | 0.0 | 0.0 | 0.00 | 0.04 | 0.00 | 91 | 1021.3 |
| 20260901062003 | 68 | 280 | 0.0 | 0.0 | 0.00 | 0.04 | 0.00 | 91 | 1021.5 |
| 20260901061003 | 68 | 280 | 0.0 | 0.0 | 0.00 | 0.04 | 0.00 | 91 | 1021.6 |
| 20260901060003 | 68 | 280 | 0.0 | 0.0 | 0.00 | 0.04 | 0.00 | 91 | 1021.6 |
| 20260901055003 | 69 | 280 | 0.0 | 1.7 | 0.00 | 0.04 | 0.00 | 91 | 1021.5 |
| 20260901054003 | 69 | 280 | 0.0 | 2.6 | 0.00 | 0.04 | 0.00 | 91 | 1021.6 |
| 20260901053003 | 68 | 280 | 0.0 | 2.6 | 0.00 | 0.04 | 0.00 | 91 | 1021.6 |
| 20260901052004 | 68 | 280 | 0.9 | 2.6 | 0.00 | 0.04 | 0.00 | 91 | 1021.5 |
| 20260901051004 | 68 | 280 | 0.0 | 0.0 | 0.00 | 0.04 | 0.00 | 91 | 1021.5 |
| 20260901050003 | 68 | 280 | 0.0 | 0.0 | 0.00 | 0.04 | 0.00 | 91 | 1021.5 |
| 20260901045003 | 69 | 280 | 0.0 | 0.0 | 0.00 | 0.04 | 0.00 | 91 | 1021.5 |
| 20260901044004 | 69 | 280 | 0.0 | 0.0 | 0.00 | 0.04 | 0.00 | 91 | 1021.4 |
| 20260901043003 | 69 | 280 | 0.0 | 0.0 | 0.00 | 0.04 | 0.00 | 91 | 1021.4 |
| 20260901022003 | 71 | 280 | 0.0 | 0.0 | 0.00 | 0.04 | 0.04 | 91 | 1021.5 |
| 20260901021003 | 71 | 280 | 0.0 | 0.0 | 0.00 | 0.04 | 0.04 | 91 | 1021.3 |
| 20260901020003 | 71 | 280 | 0.0 | 0.0 | 0.00 | 0.04 | 0.04 | 91 | 1021.1 |
| 20260901015004 | 71 | 280 | 0.0 | 0.0 | 0.00 | 0.04 | 0.04 | 90 | 1021.1 |
| 20260901014003 | 72 | 280 | 0.0 | 0.0 | 0.00 | 0.04 | 0.04 | 90 | 1021.0 |
| 20260901013003 | 72 | 280 | 0.0 | 0.0 | 0.00 | 0.04 | 0.04 | 90 | 1020.8 |
| 20260901012003 | 72 | 280 | 0.0 | 0.0 | 0.00 | 0.04 | 0.04 | 90 | 1020.6 |
| 20260901011003 | 72 | 280 | 0.0 | 0.9 | 0.00 | 0.04 | 0.04 | 90 | 1020.6 |
| 20260901010003 | 72 | 280 | 0.0 | 0.0 | 0.00 | 0.04 | 0.04 | 90 | 1020.5 |
| 20260901005003 | 73 | 280 | 0.0 | 0.0 | 0.00 | 0.04 | 0.04 | 90 | 1020.5 |
| 20260901004004 | 73 | 280 | 0.0 | 0.0 | 0.00 | 0.04 | 0.04 | 90 | 1020.3 |
| 20260901003003 | 74 | 280 | 0.0 | 0.0 | 0.00 | 0.04 | 0.04 | 90 | 1020.4 |
| 20260831232004 | 76 | 294 | 0.0 | 1.7 | 0.01 | 0.04 | 0.04 | 90 | 1020.1 |
| 20260831231003 | 76 | 294 | 0.9 | 2.6 | 0.02 | 0.02 | 0.02 | 90 | 1020.1 |
| 20260831230004 | 76 | 294 | 0.0 | 2.6 | 0.02 | 0.02 | 0.02 | 90 | 1020.2 |
| 20260831225004 | 75 | 294 | 0.9 | 1.7 | 0.02 | 0.02 | 0.02 | 90 | 1020.3 |
| 20260831224003 | 75 | 294 | 0.0 | 2.6 | 0.02 | 0.02 | 0.02 | 90 | 1020.3 |
| 20260831223003 | 75 | 294 | 0.9 | 2.6 | 0.02 | 0.02 | 0.02 | 90 | 1020.3 |
| 20260831211004 | 90 | 293 | 2.6 | 4.3 | 0.00 | 0.00 | 0.00 | 59 | 1020.6 |
| 20260831210004 | 90 | 293 | 1.7 | 2.6 | 0.00 | 0.00 | 0.00 | 58 | 1020.6 |
| 20260831205004 | 90 | 293 | 1.7 | 2.6 | 0.00 | 0.00 | 0.00 | 57 | 1020.6 |
| 20260831204004 | 89 | 293 | 1.7 | 6.1 | 0.00 | 0.00 | 0.00 | 59 | 1020.8 |
| 20260831203004 | 88 | 293 | 2.6 | 6.1 | 0.00 | 0.00 | 0.00 | 61 | 1020.8 |
| 20260831181003 | 85 | 273 | 0.9 | 2.6 | 0.00 | 0.00 | 0.00 | 67 | 1022.0 |
| 20260831180003 | 85 | 273 | 0.9 | 2.6 | 0.00 | 0.00 | 0.00 | 69 | 1022.2 |
| 20260831175003 | 85 | 273 | 0.9 | 5.2 | 0.00 | 0.00 | 0.00 | 66 | 1022.2 |
| 20260831174003 | 85 | 273 | 0.9 | 2.6 | 0.00 | 0.00 | 0.00 | 67 | 1022.2 |
| 20260831173003 | 85 | 273 | 2.6 | 6.1 | 0.00 | 0.00 | 0.00 | 66 | 1022.4 |
| 20260831172004 | 85 | 273 | 1.7 | 2.6 | 0.00 | 0.00 | 0.00 | 70 | 1022.4 |
| 20260831171004 | 85 | 273 | 1.7 | 5.2 | 0.00 | 0.00 | 0.00 | 68 | 1022.6 |
| 20260831151003 | 78 | 355 | 0.0 | 0.0 | 0.00 | 0.00 | 0.00 | 84 | 1023.4 |